Regional Weather Roundup
Issued by NWS

Home | Current Version | Previous Version | Text Only | Print | Product List | Glossary On
Versions: 1 2 3 4 5 6 7 8 9 10 11 12 13 14 15 16 17 18 19 20 21 22 23 24 25 26 27 28 29 30 31 32 33 34 35 36 37 38 39 40 41 42 43 44 45 46 47 48 49 50
166
ASUS45 KCYS 271810
RWRWY

WYOMING REGIONAL WEATHER ROUNDUP
NATIONAL WEATHER SERVICE CHEYENNE WY
1200 PM MDT FRI MAY 27 2016

NOTE:  "FAIR" INDICATES FEW OR NO CLOUDS BELOW 12,000 FEET
WITH NO SIGNIFICANT WEATHER AND/OR OBSTRUCTIONS TO VISIBILITY.

WYZ001-271900-
YELLOWSTONE NATIONAL PARK

CITY           SKY/WX    TMP DP  RH WIND       PRES   REMARKS
LK YELLOWSTONE   N/A     48  37  65 VRB5      30.03F
6HR MIN TEMP:  32; 6HR MAX TEMP:  48; 6HR PCP:  0.03;

W YELLOWSTONE  NOT AVBL

$$
WYZ002>013-054>058-071-098>099-271900-
NORTHERN WYOMING

CITY           SKY/WX    TMP DP  RH WIND       PRES   REMARKS
JACKSON        PTSUNNY   54  37  54 SW8       29.97F
CODY           FAIR      64  39  39 NW7       29.88F
GREYBULL       FAIR      64  41  42 VRB6      29.87F
6HR MIN TEMP:  45; 6HR MAX TEMP:  64;

WORLAND        FAIR      64  41  42 W6        29.88F
6HR MIN TEMP:  42; 6HR MAX TEMP:  64;

SHERIDAN       FAIR      65  45  48 W7        29.88F
6HR MIN TEMP:  41; 6HR MAX TEMP:  65;

BUFFALO        FAIR      61  41  47 N10       29.91S
6HR MIN TEMP:  43; 6HR MAX TEMP:  62;

GILLETTE       PTSUNNY   63  43  48 N10       29.88F
6HR MIN TEMP:  46; 6HR MAX TEMP:  63;

HULETT         CLOUDY    59  41  51 CALM      29.90S
NEWCASTLE      FAIR      63  34  34 N12       29.89R

$$
WYZ014>020-022>026-101>103-271900-
CENTRAL WYOMING

CITY           SKY/WX    TMP DP  RH WIND       PRES   REMARKS
BIG PINEY      PTSUNNY   57  34  41 VRB6      30.00F
6HR MIN TEMP:  35; 6HR MAX TEMP:  58;

PINEDALE       FAIR      54  32  43 CALM      30.01F
DUBOIS         CLOUDY    54  28  37 NW13      29.96S
LANDER         FAIR      61  35  37 VRB3      29.91F
6HR MIN TEMP:  42; 6HR MAX TEMP:  63;

RIVERTON       FAIR      62  37  39 VRB3      29.92F
6HR MIN TEMP:  43; 6HR MAX TEMP:  62;

CASPER         FAIR      62  35  36 W9        29.91F
6HR MIN TEMP:  38; 6HR MAX TEMP:  62;

DOUGLAS          N/A    N/A N/A N/A MISG      29.91S

$$
WYZ021-027>030-104>119-271900-
SOUTHERN WYOMING

CITY           SKY/WX    TMP DP  RH WIND       PRES   REMARKS
EVANSTON       LGT RAIN  47  33  58 N6        30.04S
6HR MIN TEMP:  38; 6HR MAX TEMP:  55; 6HR PCP:  0.10;

KEMMERER         N/A     55  30  38 NW12      30.02F
FORT BRIDGER   PTCLDY    59  34  38 W10       30.04F
ROCK SPRINGS   LGT RAIN  52  38  58 SW10      29.99F
6HR MIN TEMP:  42; 6HR MAX TEMP:  55; 6HR PCP: TRACE;

DIXON          MOCLDY    58  34  40 NW13      30.00F
RAWLINS        PTSUNNY   56  31  38 NW7       29.98F
6HR MIN TEMP:  38; 6HR MAX TEMP:  59;

SARATOGA       FAIR      55  32  41 NW14G20   29.99F
LARAMIE        PTSUNNY   52  31  44 N12       29.97S
6HR MIN TEMP:  39; 6HR MAX TEMP:  53;

CHEYENNE       FAIR      54  34  46 N16G29    29.93R
6HR MIN TEMP:  45; 6HR MAX TEMP:  56;

TORRINGTON     FAIR      64  38  38 N14       29.87S
6HR MIN TEMP:  49; 6HR MAX TEMP:  64;

PINE BLUFFS    MOCLDY    57  43  58 N13G23    29.90S

$$




USA.gov is the U.S. government's official web portal to all federal, state and local government web resources and services.